Harvey, ND

6:24 PM CDT on April 24, 2017 (GMT -0500)
Harvey

Weather History for K5H4 - October, 2012

Change the Weather History Date:

Sunday, October 14, 2012

  Actual Average (KRUG) Record (KRUG)
Temperature  
Mean Temperature 42 °F -  
Max Temperature 60 °F 55 °F 84 °F (1988)
Min Temperature 24 °F 32 °F 10 °F (1992)
Degree Days  
Heating Degree Days 23    
Moisture  
Dew Point 33 °F    
Average Humidity 75    
Maximum Humidity 100    
Minimum Humidity 39    
Precipitation  
Precipitation 0.00 in - - ()
Sea Level Pressure  
Sea Level Pressure 29.93 in    
Wind  
Wind Speed 3 mph (West)    
Max Wind Speed 9 mph    
Max Gust Speed -    
Visibility 9 miles    
Events      
Averages and records for this station are not official NWS values.
T = Trace of Precipitation, MM = Missing Value Source: NWS Daily Summary

Daily Weather History Graph

Daily Weather History Graph

Search for Another Location

Airport or City:

Trip Planner

Search our weather history database for the weather conditions in past years. The results will help you decide how hot, cold, wet, or windy it might be!

Date:

Astronomy

Oct. 14, 2012 Rise Set
Actual Time 7:58 AM CDT 6:52 PM CDT
Civil Twilight 7:26 AM CDT 7:23 PM CDT
Nautical Twilight 6:51 AM CDT 7:59 PM CDT
Astronomical Twilight 6:15 AM CDT 8:34 PM CDT
Moon 6:58 AM CDT (10/14) 6:11 PM CDT (10/14)
Length of Visible Light 11h 56m
Length of Day
10h 54m
Waning Crescent, 1% of the Moon is Illuminated
Oct 14
Waning Crescent
Oct 15
New
Oct 21
First Quarter
Oct 29
Full
Nov 6
Last Quarter

Hourly Weather History & Observations

Time (CDT) Temp. Windchill Dew Point Humidity Pressure Visibility Wind Dir Wind Speed Gust Speed Precip Events Conditions
12:15 AM 35.6 °F - 32.0 °F 87% 29.91 in 8.0 mi Calm Calm - N/A   Clear
12:35 AM 37.4 °F - 32.0 °F 81% 29.91 in 10.0 mi Calm Calm - N/A   Clear
12:55 AM 35.6 °F - 32.0 °F 87% 29.91 in 9.0 mi Calm Calm - N/A   Clear
1:15 AM 33.8 °F 30.8 °F 32.0 °F 93% 29.91 in 9.0 mi WNW 3.5 mph - N/A   Clear
1:35 AM 32.0 °F 27.5 °F 30.2 °F 93% 29.92 in 10.0 mi West 4.6 mph - N/A   Clear
1:55 AM 32.0 °F 24.8 °F 30.2 °F 93% 29.92 in 10.0 mi WNW 8.1 mph - N/A   Clear
2:15 AM 32.0 °F 24.8 °F 30.2 °F 93% 29.93 in 10.0 mi NW 8.1 mph - N/A   Clear
2:35 AM 32.0 °F 25.6 °F 32.0 °F 100% 29.93 in 10.0 mi NW 6.9 mph - N/A   Clear
2:55 AM 32.0 °F 27.5 °F 32.0 °F 100% 29.93 in 10.0 mi NW 4.6 mph - N/A   Clear
3:15 AM 32.0 °F 28.7 °F 32.0 °F 100% 29.94 in 10.0 mi North 3.5 mph - N/A   Clear
3:35 AM 32.0 °F 28.7 °F 30.2 °F 93% 29.95 in 10.0 mi North 3.5 mph - N/A   Clear
3:55 AM 30.2 °F 26.7 °F 30.2 °F 100% 29.95 in 10.0 mi NNE 3.5 mph - N/A   Clear
4:15 AM 30.2 °F 25.4 °F 28.4 °F 93% 29.94 in 10.0 mi NE 4.6 mph - N/A   Clear
4:35 AM 28.4 °F 21.2 °F 28.4 °F 100% 29.94 in 8.0 mi ENE 6.9 mph - N/A   Clear
4:55 AM 28.4 °F 21.2 °F 28.4 °F 100% 29.94 in 9.0 mi East 6.9 mph - N/A   Clear
5:15 AM 28.4 °F - 28.4 °F 100% 29.96 in 10.0 mi Calm Calm - N/A   Clear
5:35 AM 26.6 °F 18.2 °F 26.6 °F 100% 29.97 in 7.0 mi WSW 8.1 mph - N/A   Clear
5:55 AM 26.6 °F 21.2 °F 26.6 °F 100% 29.96 in 7.0 mi West 4.6 mph - N/A   Clear
6:15 AM 26.6 °F 22.6 °F 26.6 °F 100% 29.96 in 9.0 mi West 3.5 mph - N/A   Clear
6:35 AM 26.6 °F - 26.6 °F 100% 29.96 in 8.0 mi Calm Calm - N/A   Clear
6:55 AM 24.8 °F 19.1 °F 24.8 °F 100% 29.97 in 7.0 mi WNW 4.6 mph - N/A   Clear
7:15 AM 26.6 °F 21.2 °F 26.6 °F 100% 29.97 in 7.0 mi WNW 4.6 mph - N/A   Clear
7:35 AM 26.6 °F 22.6 °F 26.6 °F 100% 29.97 in 4.0 mi NNW 3.5 mph - N/A   Clear
7:55 AM 24.8 °F 20.5 °F 24.8 °F 100% 29.97 in 4.0 mi NW 3.5 mph - N/A   Clear
8:15 AM 24.8 °F 20.5 °F 24.8 °F 100% 29.97 in 1.2 mi West 3.5 mph - N/A   Clear
8:35 AM 24.8 °F - 24.8 °F 100% 29.97 in 4.0 mi Calm Calm - N/A   Clear
8:55 AM 28.4 °F - 28.4 °F 100% 29.98 in 3.0 mi Calm Calm - N/A   Clear
9:15 AM 32.0 °F 28.7 °F 32.0 °F 100% 29.97 in 4.0 mi WSW 3.5 mph - N/A   Clear
9:35 AM 35.6 °F 32.8 °F 32.0 °F 87% 29.97 in 5.0 mi West 3.5 mph - N/A   Clear
9:55 AM 35.6 °F 32.8 °F 35.6 °F 100% 29.97 in 7.0 mi WNW 3.5 mph - N/A   Clear
10:15 AM 39.2 °F 37.0 °F 35.6 °F 87% 29.96 in 10.0 mi WSW 3.5 mph - N/A   Clear
10:35 AM 41.0 °F - 35.6 °F 81% 29.96 in 10.0 mi Calm Calm - N/A   Partly Cloudy
10:55 AM 44.6 °F 43.1 °F 35.6 °F 71% 29.96 in 10.0 mi West 3.5 mph - N/A   Scattered Clouds
11:15 AM 46.4 °F 43.5 °F 37.4 °F 71% 29.97 in 10.0 mi West 5.8 mph - N/A   Partly Cloudy
11:35 AM 48.2 °F - 37.4 °F 66% 29.96 in 10.0 mi West 5.8 mph - N/A   Clear
11:55 AM 50.0 °F - 37.4 °F 62% 29.96 in 10.0 mi WNW 3.5 mph - N/A   Partly Cloudy
12:15 PM 51.8 °F - 37.4 °F 58% 29.95 in 10.0 mi West 4.6 mph - N/A   Clear
12:35 PM 53.6 °F - 35.6 °F 51% 29.96 in 10.0 mi NW 6.9 mph - N/A   Clear
12:55 PM 53.6 °F - 35.6 °F 51% 29.95 in 10.0 mi NW 9.2 mph - N/A   Clear
1:15 PM 55.4 °F - 35.6 °F 47% 29.94 in 10.0 mi NW 4.6 mph - N/A   Clear
1:35 PM 57.2 °F - 35.6 °F 44% 29.93 in 10.0 mi NW 5.8 mph - N/A   Clear
1:55 PM 55.4 °F - 35.6 °F 47% 29.93 in 10.0 mi North 4.6 mph - N/A   Clear
2:15 PM 57.2 °F - 35.6 °F 44% 29.92 in 10.0 mi NW 4.6 mph - N/A   Clear
2:35 PM 59.0 °F - 35.6 °F 42% 29.92 in 10.0 mi West 5.8 mph - N/A   Clear
3:15 PM 59.0 °F - 35.6 °F 42% 29.91 in 10.0 mi WNW 3.5 mph - N/A   Clear
3:35 PM 59.0 °F - 35.6 °F 42% 29.91 in 10.0 mi WNW 3.5 mph - N/A   Clear
3:55 PM 60.8 °F - 35.6 °F 39% 29.90 in 10.0 mi NNW 3.5 mph - N/A   Clear
4:15 PM 60.8 °F - 35.6 °F 39% 29.90 in 10.0 mi Calm Calm - N/A   Clear
4:35 PM 60.8 °F - 35.6 °F 39% 29.90 in 10.0 mi NE 3.5 mph - N/A   Clear
4:55 PM 60.8 °F - 35.6 °F 39% 29.90 in 10.0 mi SW 3.5 mph - N/A   Clear
5:15 PM 60.8 °F - 35.6 °F 39% 29.90 in 10.0 mi Calm Calm - N/A   Clear
5:35 PM 59.0 °F - 35.6 °F 42% 29.90 in 10.0 mi Calm Calm - N/A   Clear
5:55 PM 59.0 °F - 35.6 °F 42% 29.90 in 10.0 mi Calm Calm - N/A   Clear
6:15 PM 57.2 °F - 35.6 °F 44% 29.90 in 10.0 mi Calm Calm - N/A   Clear
6:35 PM 55.4 °F - 35.6 °F 47% 29.90 in 10.0 mi SE 3.5 mph - N/A   Clear
6:55 PM 53.6 °F - 35.6 °F 51% 29.90 in 10.0 mi SSE 4.6 mph - N/A   Clear
7:15 PM 50.0 °F - 35.6 °F 58% 29.90 in 9.0 mi SSE 5.8 mph - N/A   Clear
7:35 PM 50.0 °F - 35.6 °F 58% 29.90 in 10.0 mi SSE 8.1 mph - N/A   Clear
7:55 PM 48.2 °F - 35.6 °F 62% 29.90 in 10.0 mi SSE 6.9 mph - N/A   Clear
8:15 PM 48.2 °F - 35.6 °F 62% 29.89 in 10.0 mi SSE 8.1 mph - N/A   Clear
8:35 PM 46.4 °F 42.9 °F 35.6 °F 66% 29.89 in 10.0 mi SSE 6.9 mph - N/A   Clear
8:55 PM 46.4 °F 44.3 °F 35.6 °F 66% 29.89 in 10.0 mi South 4.6 mph - N/A   Clear
9:15 PM 44.6 °F 41.4 °F 35.6 °F 71% 29.90 in 10.0 mi South 5.8 mph - N/A   Clear
9:35 PM 42.8 °F 39.3 °F 33.8 °F 70% 29.90 in 10.0 mi SSE 5.8 mph - N/A   Clear
9:55 PM 41.0 °F 38.0 °F 33.8 °F 76% 29.90 in 10.0 mi South 4.6 mph - N/A   Clear
10:15 PM 41.0 °F - 32.0 °F 70% 29.90 in 8.0 mi Calm Calm - N/A   Clear
10:35 PM 41.0 °F 39.0 °F 33.8 °F 76% 29.89 in 10.0 mi SSW 3.5 mph - N/A   Clear
10:55 PM 37.4 °F - 32.0 °F 81% 29.89 in 10.0 mi Calm Calm - N/A   Clear
11:15 PM 35.6 °F 30.7 °F 32.0 °F 87% 29.88 in 10.0 mi SE 5.8 mph - N/A   Clear
11:35 PM 35.6 °F 31.7 °F 32.0 °F 87% 29.88 in 10.0 mi SSE 4.6 mph - N/A   Clear
11:55 PM 33.8 °F 29.6 °F 32.0 °F 93% 29.87 in 10.0 mi SSE 4.6 mph - N/A   Clear